[[{"header":{"parameterUnit":"m.s-1","parameterCategory":1,"la1":30.2991,"la2":30.254,"lo1":-89.0895,"lo2":-89.0444,"dy":0.0017,"dx":0.0017,"nx":28,"ny":28,"refTime":"2024-03-19T03:00:00:Z","depth":0,"parameterNumber":2,"parameterNumberName":"U-component_of_WINDS"},"data":[0,0,0,0,0,0,0,0,0,0,0,0,0,0,0,0,0,0,0,0,0,0,0,0,0,0,0,0,0,0,0,0,0,0,0,0,0,0,0,0,0,0,0,0,0,0,0,0,0,0,0,0,0,0,0,0,0,0,1.0503,1.0504,0,1.0586,1.0587,1.0588,1.0601,1.0601,1.06,1.0599,1.0682,1.0685,1.0688,0,0,0,0,0,0,0,0,0,0,0,0,0,1.0354,1.0357,1.0503,1.0504,1.0505,1.0586,1.0587,1.0588,1.0601,1.0601,1.06,1.0599,1.0681,1.0685,1.0688,0,0,0,0,0,0,0,0,0,0,0,0,0,1.0426,1.0358,1.0503,1.0522,1.0524,1.0586,1.0587,1.0588,1.0602,1.06,1.0599,1.0598,1.068,1.0684,1.0689,1.0737,0,0,1.0702,1.0704,0,0,0,0,0,0,0,0,1.0422,1.0431,1.0518,1.052,1.0523,1.0582,1.0565,1.0638,1.0602,1.0572,1.0599,1.0598,1.065,1.0657,1.0674,1.0741,1.0744,1.0702,1.0705,1.0707,1.0708,0,0,0,0,0,0,0,1.0417,1.0428,1.0536,1.0519,1.0522,1.0525,1.0534,1.0579,1.0616,1.0575,1.0576,1.0585,1.0651,1.067,1.0676,1.0746,1.0702,1.0706,1.0709,1.071,1.0855,1.0856,0,0,0,0,0,0,1.0409,1.0424,1.0533,1.0538,1.0469,1.0529,1.0539,1.0564,1.0615,1.0622,1.0586,1.0586,1.0663,1.0671,1.0679,1.0738,1.0707,1.0711,1.0713,1.0853,1.0855,1.0856,0,0,0,0,0,0,1.0406,1.0418,1.053,1.0481,1.0496,1.0532,1.0561,1.0567,1.0586,1.0624,1.0631,1.0599,1.0663,1.0673,1.0722,1.0741,1.0713,1.0717,1.0852,1.0854,1.0855,1.0857,0,0,0,0,0,0,1.0401,1.0417,1.0437,1.0482,1.0498,1.0572,1.0562,1.0569,1.0593,1.0593,1.0638,1.0645,1.0663,1.0716,1.0727,1.0747,1.072,1.085,1.0853,1.0855,1.0855,1.0859,1.0862,0,0,0,0,0,1.0396,1.0434,1.0437,1.0451,1.0523,1.0573,1.0583,1.0603,1.0595,1.0614,1.0639,1.0643,1.0738,1.0721,1.0733,1.0755,1.0849,1.0852,1.0855,1.0854,1.0858,1.0861,0,0,0,0,0,0,1.0389,1.044,1.0445,1.0498,1.0531,1.0575,1.06,1.0607,1.0643,1.0641,1.0665,1.0675,1.0723,1.0744,1.0724,1.0804,1.0793,1.0798,1.0788,1.0792,1.0795,1.0789,1.0724,0,0,0,0,0,1.0394,1.0431,1.0473,1.0516,1.0533,1.0564,1.0586,1.0599,1.0634,1.0648,1.0676,1.071,1.0747,1.0771,1.0807,1.0859,1.0868,1.088,1.0883,1.0885,1.0889,1.0917,1.0922,1.0865,1.0865,1.0865,0,0,1.0404,1.0437,1.0459,1.0516,1.0543,1.058,1.0575,1.0615,1.0642,1.0654,1.0702,1.0724,1.0762,1.0813,1.0836,1.0832,1.0907,1.0889,1.089,1.0893,1.092,1.0925,1.093,1.0867,1.0867,1.0867,0,0,1.0442,1.0471,1.0509,1.0536,1.0578,1.0598,1.0607,1.065,1.0665,1.0714,1.0723,1.0755,1.0819,1.0846,1.0868,1.0915,1.0919,1.0926,1.0941,1.0968,1.0972,1.0976,1.0992,1.0997,1.093,1.093,1.093,0,1.0449,1.0506,1.0528,1.0567,1.0591,1.0604,1.0643,1.0668,1.0719,1.0735,1.0729,1.0809,1.0836,1.0892,1.0903,1.0921,1.0931,1.092,1.097,1.0974,1.0978,1.0993,1.0999,1.093,1.093,1.093,1.093,0,1.0512,1.0551,1.0577,1.0626,1.0653,1.0692,1.0719,1.0744,1.0755,1.0775,1.0824,1.0856,1.0899,1.0914,1.0924,1.0971,1.0967,1.0965,1.0955,1.0984,1.0998,1.1004,1.0931,1.0931,1.0931,1.0931,0,0,1.0548,1.0608,1.0617,1.0639,1.0685,1.0715,1.0754,1.0796,1.0816,1.0851,1.0883,1.0936,1.0935,1.096,1.0974,1.0997,1.1031,1.0993,1.0994,1.0998,1.1083,1.1082,1.1089,1.1034,1.1036,1.1037,1.1079,0,1.059,1.0659,1.068,1.0738,1.0774,1.0786,1.082,1.0851,1.0871,1.0903,1.0925,1.0962,1.0959,1.0974,1.0998,1.1021,1.1048,1.1019,1.1064,1.1065,1.1052,1.1097,1.1097,1.1135,1.1085,1.1086,1.1087,0,1.0648,1.0683,1.0745,1.0786,1.0801,1.0831,1.0871,1.0902,1.0938,1.095,1.0978,1.099,1.1029,1.1017,1.1071,1.1051,1.1071,1.1085,1.1087,1.1091,1.1077,1.1101,1.1148,1.1153,1.1096,1.1095,1.1094,0,1.0666,1.0729,1.0774,1.0793,1.0841,1.0862,1.0883,1.0918,1.0941,1.0976,1.0991,1.103,1.1051,1.108,1.1101,1.1091,1.1153,1.1143,1.1164,1.1164,1.1176,1.1175,1.1226,1.1191,1.119,1.119,1.119,0,1.071,1.0747,1.0783,1.081,1.0852,1.0875,1.0915,1.0937,1.0967,1.0998,1.1011,1.104,1.1067,1.11,1.1117,1.1158,1.1168,1.1179,1.1182,1.1177,1.1175,1.1189,1.1187,1.1192,1.1192,1.1191,1.1191,0,1.0737,1.0763,1.0812,1.0854,1.0866,1.0894,1.093,1.0956,1.0977,1.1016,1.1027,1.1058,1.1097,1.1121,1.1171,1.1182,1.1227,1.1231,1.1215,1.1217,1.1236,1.1233,1.1297,1.1306,1.1265,1.1266,1.1266,0,1.0763,1.0792,1.0837,1.0859,1.088,1.0915,1.0939,1.0963,1.0987,1.1029,1.1051,1.109,1.1123,1.1184,1.1211,1.1248,1.1252,1.1272,1.1258,1.1251,1.1251,1.1249,1.1251,1.1274,1.1274,1.1274,1.1275,0,1.0806,1.0817,1.0851,1.089,1.0919,1.095,1.0982,1.0999,1.1027,1.1054,1.1094,1.1119,1.1169,1.1208,1.1247,1.1268,1.1276,1.1279,1.1285,1.1279,1.1269,1.1274,1.122,1.1277,1.1277,1.1277,1.1277,1.1276,1.0832,1.0858,1.0893,1.0931,1.0957,1.0986,1.1013,1.1037,1.107,1.1113,1.1124,1.1166,1.1199,1.1253,1.1275,1.1307,1.1304,1.1314,1.1317,1.1318,1.1318,1.1265,1.1315,1.1315,1.1315,1.1314,1.1314,0,1.0875,1.0898,1.0933,1.0976,1.1005,1.1011,1.1045,1.1069,1.1105,1.1137,1.1168,1.1213,1.1251,1.1281,1.1319,1.1339,1.1343,1.1348,1.1346,1.135,1.1319,1.1309,1.1343,1.1343,1.1343,1.1343,1.1343,1.1343,1.09,1.0944,1.0959,1.1014,1.1037,1.1078,1.1097,1.1124,1.1148,1.1198,1.1229,1.1249,1.1279,1.1319,1.1353,1.1361,1.1374,1.1378,1.1386,1.1356,1.1353,1.135,1.134,1.1381,1.1381,1.1415,1.1415,1.1416]},{"header":{"parameterUnit":"m.s-1","parameterCategory":1,"la1":30.2991,"la2":30.254,"lo1":-89.0895,"lo2":-89.0444,"dy":0.0017,"dx":0.0017,"nx":28,"ny":28,"refTime":"2024-03-19T03:00:00:Z","depth":0,"parameterNumber":3,"parameterNumberName":"V-component_of_WINDS"},"data":[0,0,0,0,0,0,0,0,0,0,0,0,0,0,0,0,0,0,0,0,0,0,0,0,0,0,0,0,0,0,0,0,0,0,0,0,0,0,0,0,0,0,0,0,0,0,0,0,0,0,0,0,0,0,0,0,0,0,-1.8923,-1.8925,0,-1.9025,-1.9026,-1.9028,-1.9045,-1.9044,-1.9044,-1.9043,-1.9147,-1.915,-1.9154,0,0,0,0,0,0,0,0,0,0,0,0,0,-1.8745,-1.8748,-1.8923,-1.8925,-1.8926,-1.9025,-1.9026,-1.9028,-1.9045,-1.9044,-1.9043,-1.9042,-1.9146,-1.915,-1.9154,0,0,0,0,0,0,0,0,0,0,0,0,0,-1.8832,-1.8749,-1.8923,-1.8947,-1.895,-1.9025,-1.9026,-1.9028,-1.9046,-1.9044,-1.9043,-1.9042,-1.9144,-1.915,-1.9155,-1.9214,0,0,-1.9171,-1.9174,0,0,0,0,0,0,0,0,-1.8827,-1.8839,-1.8942,-1.8945,-1.8949,-1.9021,-1.9002,-1.909,-1.9046,-1.9009,-1.9043,-1.9041,-1.9106,-1.9115,-1.9137,-1.9219,-1.9223,-1.9172,-1.9175,-1.9177,-1.9179,0,0,0,0,0,0,0,-1.8821,-1.8835,-1.8964,-1.8943,-1.8948,-1.8952,-1.8963,-1.9019,-1.9064,-1.9012,-1.9014,-1.9026,-1.9108,-1.9131,-1.9139,-1.9225,-1.9172,-1.9176,-1.918,-1.9182,-1.9361,-1.9362,0,0,0,0,0,0,-1.8811,-1.8829,-1.896,-1.8967,-1.8884,-1.8957,-1.8969,-1.8999,-1.9063,-1.9072,-1.9027,-1.9026,-1.9123,-1.9133,-1.9143,-1.9216,-1.9177,-1.9182,-1.9185,-1.9359,-1.9361,-1.9363,0,0,0,0,0,0,-1.8807,-1.8822,-1.8956,-1.8899,-1.8916,-1.8961,-1.8995,-1.9002,-1.9025,-1.9074,-1.9082,-1.9042,-1.9122,-1.9135,-1.9196,-1.922,-1.9185,-1.919,-1.9358,-1.936,-1.9362,-1.9363,0,0,0,0,0,0,-1.8802,-1.8821,-1.8843,-1.8899,-1.8919,-1.9008,-1.8997,-1.9005,-1.9035,-1.9035,-1.9091,-1.9099,-1.9122,-1.9188,-1.9201,-1.9227,-1.9194,-1.9356,-1.9359,-1.9361,-1.9361,-1.9365,-1.9368,0,0,0,0,0,-1.8795,-1.8839,-1.8844,-1.886,-1.8948,-1.9009,-1.902,-1.9046,-1.9036,-1.906,-1.9091,-1.9097,-1.9215,-1.9194,-1.9209,-1.9237,-1.9354,-1.9358,-1.9361,-1.9359,-1.9364,-1.9368,0,0,0,0,0,0,-1.8785,-1.8847,-1.8853,-1.8916,-1.8957,-1.9012,-1.9042,-1.9051,-1.9095,-1.9093,-1.9124,-1.9136,-1.9196,-1.9222,-1.9198,-1.9297,-1.9284,-1.9291,-1.9278,-1.9283,-1.9286,-1.9278,-1.9198,0,0,0,0,0,-1.879,-1.8834,-1.8886,-1.8937,-1.8957,-1.8996,-1.9023,-1.904,-1.9084,-1.9101,-1.9137,-1.9179,-1.9226,-1.9256,-1.9301,-1.9365,-1.9378,-1.9392,-1.9395,-1.9398,-1.9404,-1.944,-1.9447,-1.9374,-1.9374,-1.9374,0,0,-1.8801,-1.8841,-1.8866,-1.8936,-1.897,-1.9015,-1.901,-1.9058,-1.9092,-1.9108,-1.9168,-1.9196,-1.9245,-1.9308,-1.9337,-1.9332,-1.9427,-1.9403,-1.9405,-1.9408,-1.9444,-1.9451,-1.9457,-1.9377,-1.9376,-1.9376,0,0,-1.8844,-1.8878,-1.8925,-1.8959,-1.901,-1.9036,-1.9047,-1.91,-1.9119,-1.918,-1.9193,-1.9234,-1.9314,-1.9349,-1.9377,-1.9434,-1.9442,-1.9449,-1.9468,-1.9503,-1.9509,-1.9514,-1.9535,-1.9542,-1.9454,-1.9454,-1.9454,0,-1.8851,-1.892,-1.8947,-1.8995,-1.9026,-1.9043,-1.909,-1.9122,-1.9185,-1.9206,-1.9199,-1.93,-1.9335,-1.9406,-1.942,-1.9442,-1.9456,-1.9442,-1.9506,-1.9511,-1.9516,-1.9536,-1.9544,-1.9454,-1.9454,-1.9454,-1.9454,0,-1.8926,-1.8974,-1.9005,-1.9066,-1.91,-1.9148,-1.9183,-1.9214,-1.9228,-1.9255,-1.9316,-1.9358,-1.9413,-1.9432,-1.9446,-1.9505,-1.9501,-1.9499,-1.9487,-1.9523,-1.9543,-1.9551,-1.9455,-1.9455,-1.9455,-1.9454,0,0,-1.8964,-1.9041,-1.9052,-1.908,-1.9139,-1.9176,-1.9225,-1.9278,-1.9305,-1.9348,-1.939,-1.9458,-1.9458,-1.9489,-1.9508,-1.9539,-1.9582,-1.9534,-1.9536,-1.9541,-1.9651,-1.9651,-1.966,-1.9588,-1.9589,-1.9591,-1.9647,0,-1.9014,-1.9101,-1.9128,-1.9201,-1.9245,-1.9263,-1.9305,-1.9346,-1.9372,-1.9414,-1.9444,-1.9491,-1.9487,-1.9507,-1.9538,-1.957,-1.9604,-1.9566,-1.9627,-1.9629,-1.9613,-1.967,-1.967,-1.9721,-1.9655,-1.9656,-1.9657,0,-1.9084,-1.9129,-1.9206,-1.9259,-1.9279,-1.9317,-1.9369,-1.9409,-1.9455,-1.9473,-1.9509,-1.9525,-1.9577,-1.9562,-1.9634,-1.9607,-1.9634,-1.9654,-1.9656,-1.9663,-1.9644,-1.9677,-1.9738,-1.9745,-1.9669,-1.9668,-1.9667,0,-1.9104,-1.9184,-1.9241,-1.9264,-1.9328,-1.9354,-1.9382,-1.9428,-1.9458,-1.9504,-1.9525,-1.9576,-1.9604,-1.9643,-1.9673,-1.9659,-1.9743,-1.973,-1.9758,-1.9758,-1.9774,-1.9773,-1.984,-1.9792,-1.9792,-1.9792,-1.9792,0,-1.9156,-1.9203,-1.9251,-1.9285,-1.9338,-1.9369,-1.9421,-1.945,-1.949,-1.9531,-1.955,-1.9588,-1.9625,-1.9669,-1.9692,-1.9749,-1.9761,-1.9777,-1.9782,-1.9775,-1.9773,-1.9792,-1.9789,-1.9794,-1.9794,-1.9793,-1.9793,0,-1.9187,-1.9221,-1.9284,-1.934,-1.9355,-1.9391,-1.9439,-1.9474,-1.9502,-1.9554,-1.9568,-1.9611,-1.9663,-1.9697,-1.9763,-1.9779,-1.9841,-1.9846,-1.9825,-1.9828,-1.9854,-1.9851,-1.9936,-1.9948,-1.9892,-1.9893,-1.9893,0,-1.9218,-1.9254,-1.9314,-1.9343,-1.9371,-1.9417,-1.9449,-1.9481,-1.9514,-1.9571,-1.9599,-1.9652,-1.9697,-1.9779,-1.9817,-1.9868,-1.9874,-1.99,-1.9882,-1.9873,-1.9874,-1.9872,-1.9876,-1.9903,-1.9903,-1.9904,-1.9904,0,-1.927,-1.9285,-1.933,-1.9381,-1.9419,-1.9461,-1.9503,-1.9526,-1.9565,-1.9601,-1.9655,-1.9689,-1.9757,-1.981,-1.9865,-1.9894,-1.9906,-1.991,-1.9919,-1.9911,-1.9898,-1.9906,-1.9833,-1.9907,-1.9907,-1.9907,-1.9907,-1.9906,-1.9302,-1.9335,-1.9382,-1.9432,-1.9467,-1.9507,-1.9542,-1.9575,-1.962,-1.9678,-1.9694,-1.9751,-1.9798,-1.9872,-1.9903,-1.9947,-1.9944,-1.9958,-1.9961,-1.9964,-1.9964,-1.9891,-1.9958,-1.9957,-1.9957,-1.9957,-1.9957,0,-1.9354,-1.9386,-1.9431,-1.949,-1.9529,-1.9537,-1.9585,-1.9617,-1.9666,-1.9709,-1.9753,-1.9815,-1.9867,-1.9909,-1.9962,-1.999,-1.9997,-2.0003,-2.0001,-2.0008,-1.9964,-1.995,-1.9997,-1.9997,-1.9997,-1.9997,-1.9997,-1.9997,-1.9386,-1.9443,-1.9464,-1.9539,-1.957,-1.9625,-1.9652,-1.9688,-1.9723,-1.9791,-1.9834,-1.9862,-1.9905,-1.9962,-2.001,-2.0021,-2.004,-2.0045,-2.0057,-2.0015,-2.0011,-2.0006,-1.9994,-2.0049,-2.0049,-2.0097,-2.0098,-2.0098]}]]